| time (UTC) | temp C | wind direction | speed KPH | gust KPH | rain 1hr cm | rain 24hr cm | rain mn cm | humidity % | barometer mb |
| 20260506073038 | 7 | 14 | 3.2 | 9.7 | 0.00 | 0.00 | 0.00 | 69 | 1017.3 |
| 20260506072103 | 7 | 352 | 3.2 | 6.4 | 0.00 | 0.00 | 0.00 | 69 | 1017.3 |
| 20260506071038 | 6 | 13 | 3.2 | 8.0 | 0.00 | 0.00 | 0.00 | 69 | 1017.3 |
| 20260506062123 | 5 | 10 | 3.2 | 6.4 | 0.00 | 0.00 | 0.00 | 74 | 1017.2 |
| 20260506061039 | 5 | 350 | 1.6 | 4.8 | 0.00 | 0.00 | 0.00 | 75 | 1017.2 |
| 20260506060142 | 4 | 0 | 1.6 | 4.8 | 0.00 | 0.00 | 0.00 | 75 | 1017.2 |
| 20260506051118 | 3 | 0 | 0.0 | 3.2 | 0.00 | 0.00 | 0.00 | 77 | 1017.3 |
| 20260506045039 | 2 | 0.0 | 0.0 | 0.00 | 0.00 | 0.00 | 76 | 1017.2 | |
| 20260506044103 | 2 | 30 | 0.0 | 3.2 | 0.00 | 0.00 | 0.00 | 76 | 1017.2 |
| 20260506043038 | 2 | 315 | 0.0 | 3.2 | 0.00 | 0.00 | 0.00 | 75 | 1017.2 |
| 20260506042223 | 2 | 15 | 0.0 | 3.2 | 0.00 | 0.00 | 0.00 | 75 | 1017.2 |
| 20260506041059 | 2 | 0.0 | 1.6 | 0.00 | 0.00 | 0.00 | 75 | 1017.1 | |
| 20260506040122 | 2 | 0 | 0.0 | 3.2 | 0.00 | 0.00 | 0.00 | 74 | 1017.2 |
| 20260506035139 | 2 | 225 | 0.0 | 3.2 | 0.00 | 0.00 | 0.00 | 74 | 1017.2 |
| 20260506034102 | 3 | 225 | 0.0 | 3.2 | 0.00 | 0.00 | 0.00 | 74 | 1017.2 |
| 20260506033038 | 3 | 225 | 0.0 | 3.2 | 0.00 | 0.00 | 0.00 | 73 | 1017.3 |
| 20260506032103 | 3 | 225 | 0.0 | 3.2 | 0.00 | 0.00 | 0.00 | 73 | 1017.3 |
| 20260506031039 | 3 | 0.0 | 1.6 | 0.00 | 0.00 | 0.00 | 73 | 1017.4 | |
| 20260506025059 | 3 | 0 | 0.0 | 3.2 | 0.00 | 0.00 | 0.00 | 72 | 1017.4 |
| 20260506024243 | 3 | 351 | 0.0 | 3.2 | 0.00 | 0.00 | 0.00 | 72 | 1017.4 |
| 20260506023038 | 3 | 10 | 1.6 | 3.2 | 0.00 | 0.00 | 0.00 | 72 | 1017.4 |
| 20260506021039 | 4 | 334 | 0.0 | 3.2 | 0.00 | 0.00 | 0.00 | 71 | 1017.5 |
| 20260506020223 | 4 | 0 | 0.0 | 3.2 | 0.00 | 0.00 | 0.00 | 71 | 1017.6 |
| 20260506015039 | 4 | 0.0 | 3.2 | 0.00 | 0.00 | 0.00 | 71 | 1017.6 | |
| 20260506014102 | 4 | 0 | 0.0 | 1.6 | 0.00 | 0.00 | 0.00 | 70 | 1017.7 |
| 20260506013139 | 4 | 353 | 0.0 | 1.6 | 0.00 | 0.00 | 0.00 | 70 | 1017.7 |
| 20260506012123 | 4 | 0 | 0.0 | 1.6 | 0.00 | 0.00 | 0.00 | 70 | 1017.7 |
| 20260506010122 | 5 | 338 | 0.0 | 3.2 | 0.00 | 0.00 | 0.00 | 69 | 1017.9 |
| 20260506005039 | 5 | 0.0 | 3.2 | 0.00 | 0.00 | 0.00 | 69 | 1018.0 | |
| 20260506004103 | 5 | 0 | 1.6 | 3.2 | 0.00 | 0.00 | 0.00 | 69 | 1018.0 |
| 20260506003058 | 5 | 355 | 1.6 | 3.2 | 0.00 | 0.00 | 0.00 | 69 | 1017.9 |
| 20260506002103 | 5 | 0 | 0.0 | 3.2 | 0.00 | 0.00 | 0.00 | 69 | 1017.9 |
| 20260506001039 | 5 | 354 | 0.0 | 3.2 | 0.00 | 0.00 | 0.00 | 69 | 1017.9 |
| 20260505235039 | 5 | 0 | 0.0 | 3.2 | 0.00 | 0.00 | 0.00 | 70 | 1018.0 |
| 20260505234103 | 5 | 11 | 0.0 | 3.2 | 0.00 | 0.00 | 0.00 | 70 | 1018.0 |
| 20260505233139 | 6 | 0 | 0.0 | 3.2 | 0.00 | 0.00 | 0.00 | 69 | 1018.0 |
| 20260505232143 | 6 | 5 | 0.0 | 3.2 | 0.00 | 0.00 | 0.00 | 69 | 1018.1 |
| 20260505231038 | 6 | 5 | 1.6 | 3.2 | 0.00 | 0.00 | 0.00 | 69 | 1018.1 |
| 20260505230202 | 6 | 358 | 1.6 | 3.2 | 0.00 | 0.00 | 0.00 | 69 | 1018.1 |
| 20260505225119 | 6 | 359 | 1.6 | 4.8 | 0.00 | 0.00 | 0.00 | 69 | 1018.1 |
| 20260505224103 | 6 | 12 | 1.6 | 4.8 | 0.00 | 0.00 | 0.00 | 69 | 1018.1 |
| 20260505223059 | 6 | 16 | 1.6 | 4.8 | 0.00 | 0.00 | 0.00 | 69 | 1018.1 |
| 20260505222103 | 6 | 8 | 1.6 | 3.2 | 0.00 | 0.00 | 0.00 | 69 | 1018.3 |
| 20260505221039 | 6 | 7 | 1.6 | 3.2 | 0.00 | 0.00 | 0.00 | 69 | 1018.3 |
| 20260505220223 | 6 | 16 | 1.6 | 4.8 | 0.00 | 0.00 | 0.00 | 68 | 1018.3 |
| 20260505215039 | 6 | 43 | 1.6 | 6.4 | 0.00 | 0.00 | 0.00 | 68 | 1018.2 |
| 20260505214103 | 6 | 31 | 3.2 | 8.0 | 0.00 | 0.00 | 0.00 | 68 | 1018.2 |
| 20260505213039 | 6 | 26 | 1.6 | 3.2 | 0.00 | 0.00 | 0.00 | 68 | 1018.2 |
| 20260505212103 | 6 | 16 | 3.2 | 4.8 | 0.00 | 0.00 | 0.00 | 67 | 1018.2 |
| 20260505211039 | 6 | 23 | 3.2 | 8.0 | 0.00 | 0.00 | 0.00 | 67 | 1018.2 |
| 20260505210202 | 6 | 13 | 3.2 | 4.8 | 0.00 | 0.00 | 0.00 | 67 | 1018.2 |
| 20260505205039 | 6 | 19 | 3.2 | 4.8 | 0.00 | 0.00 | 0.00 | 67 | 1018.2 |
| 20260505204123 | 6 | 37 | 3.2 | 6.4 | 0.00 | 0.00 | 0.00 | 66 | 1018.2 |
| 20260505203058 | 6 | 20 | 3.2 | 6.4 | 0.00 | 0.00 | 0.00 | 66 | 1018.2 |
| 20260505202123 | 6 | 27 | 3.2 | 8.0 | 0.00 | 0.00 | 0.00 | 65 | 1018.2 |
| 20260505201039 | 6 | 27 | 4.8 | 9.7 | 0.00 | 0.00 | 0.00 | 64 | 1018.1 |
| 20260505200123 | 7 | 40 | 4.8 | 8.0 | 0.00 | 0.00 | 0.00 | 64 | 1018.1 |
| 20260505195159 | 7 | 38 | 3.2 | 8.0 | 0.00 | 0.00 | 0.00 | 64 | 1018.1 |
| 20260505194123 | 7 | 37 | 6.4 | 11.3 | 0.00 | 0.00 | 0.00 | 64 | 1018.1 |
| 20260505193039 | 7 | 41 | 6.4 | 11.3 | 0.00 | 0.00 | 0.00 | 64 | 1017.9 |
| 20260505192203 | 7 | 10 | 6.4 | 11.3 | 0.00 | 0.00 | 0.00 | 61 | 1017.9 |
| 20260505191059 | 7 | 26 | 6.4 | 12.9 | 0.00 | 0.00 | 0.00 | 60 | 1017.9 |
| 20260505190142 | 7 | 25 | 8.0 | 12.9 | 0.00 | 0.00 | 0.00 | 59 | 1017.7 |
| 20260505185039 | 7 | 35 | 6.4 | 12.9 | 0.00 | 0.00 | 0.00 | 60 | 1017.8 |
| 20260505184103 | 7 | 8 | 6.4 | 12.9 | 0.00 | 0.00 | 0.00 | 60 | 1017.8 |
| 20260505183118 | 7 | 23 | 6.4 | 12.9 | 0.00 | 0.00 | 0.00 | 59 | 1017.7 |
| 20260505182123 | 7 | 36 | 8.0 | 12.9 | 0.00 | 0.00 | 0.00 | 60 | 1017.7 |
| 20260505181139 | 8 | 20 | 8.0 | 16.1 | 0.00 | 0.00 | 0.00 | 60 | 1017.8 |
| 20260505180123 | 8 | 34 | 8.0 | 12.9 | 0.00 | 0.00 | 0.00 | 60 | 1017.8 |
| 20260505175119 | 8 | 31 | 8.0 | 17.7 | 0.00 | 0.00 | 0.00 | 60 | 1017.8 |
| 20260505174103 | 8 | 24 | 6.4 | 12.9 | 0.00 | 0.00 | 0.00 | 60 | 1017.8 |
| 20260505173059 | 8 | 20 | 8.0 | 16.1 | 0.00 | 0.00 | 0.00 | 60 | 1017.7 |
| 20260505172103 | 8 | 24 | 6.4 | 12.9 | 0.00 | 0.00 | 0.00 | 60 | 1017.7 |
| 20260505171119 | 8 | 23 | 9.7 | 17.7 | 0.00 | 0.00 | 0.00 | 60 | 1017.7 |
| 20260505170103 | 8 | 1 | 6.4 | 12.9 | 0.00 | 0.00 | 0.00 | 60 | 1017.7 |
| 20260505165039 | 8 | 33 | 8.0 | 19.3 | 0.00 | 0.00 | 0.00 | 60 | 1017.7 |
| 20260505164103 | 8 | 26 | 6.4 | 12.9 | 0.00 | 0.00 | 0.00 | 60 | 1017.6 |
| 20260505163039 | 8 | 21 | 8.0 | 14.5 | 0.00 | 0.00 | 0.00 | 60 | 1017.6 |
| 20260505162103 | 8 | 16 | 8.0 | 14.5 | 0.00 | 0.00 | 0.00 | 60 | 1017.6 |
| 20260505161039 | 8 | 17 | 6.4 | 11.3 | 0.00 | 0.00 | 0.00 | 60 | 1017.6 |
| 20260505160143 | 8 | 22 | 8.0 | 12.9 | 0.00 | 0.00 | 0.00 | 61 | 1017.6 |
| 20260505153059 | 8 | 31 | 8.0 | 16.1 | 0.00 | 0.00 | 0.00 | 64 | 1017.5 |
| 20260505152123 | 8 | 11 | 6.4 | 14.5 | 0.00 | 0.00 | 0.00 | 64 | 1017.5 |
| 20260505151119 | 8 | 357 | 9.7 | 17.7 | 0.00 | 0.00 | 0.00 | 63 | 1017.5 |
| 20260505150203 | 8 | 29 | 8.0 | 14.5 | 0.00 | 0.00 | 0.00 | 63 | 1017.4 |
| 20260505130223 | 9 | 24 | 9.7 | 16.1 | 0.00 | 0.00 | 0.00 | 65 | 1016.9 |
| 20260505125039 | 9 | 41 | 8.0 | 14.5 | 0.00 | 0.00 | 0.00 | 66 | 1016.8 |
| 20260505124103 | 9 | 39 | 9.7 | 22.5 | 0.00 | 0.00 | 0.00 | 65 | 1016.8 |
| 20260505123039 | 10 | 34 | 11.3 | 20.9 | 0.00 | 0.00 | 0.00 | 65 | 1016.8 |
| 20260505122103 | 10 | 30 | 9.7 | 17.7 | 0.00 | 0.00 | 0.00 | 65 | 1016.7 |
| 20260505121039 | 10 | 29 | 11.3 | 22.5 | 0.00 | 0.00 | 0.00 | 65 | 1016.7 |
| 20260505120103 | 10 | 13 | 11.3 | 22.5 | 0.00 | 0.00 | 0.00 | 66 | 1016.7 |
| 20260505115059 | 10 | 20 | 12.9 | 25.7 | 0.00 | 0.00 | 0.00 | 66 | 1016.7 |
| 20260505114103 | 9 | 35 | 9.7 | 16.1 | 0.00 | 0.00 | 0.00 | 68 | 1016.6 |
| 20260505113140 | 9 | 33 | 12.9 | 20.9 | 0.00 | 0.00 | 0.00 | 69 | 1016.5 |
| 20260505112103 | 9 | 8 | 12.9 | 24.1 | 0.00 | 0.00 | 0.00 | 70 | 1016.4 |
| 20260505111039 | 9 | 9 | 11.3 | 17.7 | 0.00 | 0.00 | 0.00 | 70 | 1016.4 |
| 20260505102103 | 12 | 14 | 14.5 | 27.4 | 0.00 | 0.00 | 0.00 | 56 | 1015.7 |
| 20260505101039 | 11 | 14 | 9.7 | 20.9 | 0.00 | 0.00 | 0.00 | 54 | 1015.7 |
| 20260505100124 | 11 | 52 | 9.7 | 19.3 | 0.00 | 0.00 | 0.00 | 55 | 1015.6 |
| 20260505095119 | 10 | 31 | 6.4 | 16.1 | 0.00 | 0.00 | 0.00 | 56 | 1015.7 |
| 20260505094224 | 10 | 45 | 8.0 | 19.3 | 0.00 | 0.00 | 0.00 | 56 | 1015.7 |
| 20260505093100 | 10 | 31 | 8.0 | 16.1 | 0.00 | 0.00 | 0.00 | 57 | 1015.6 |
| 20260505092123 | 10 | 29 | 9.7 | 20.9 | 0.00 | 0.00 | 0.00 | 58 | 1015.6 |
| 20260505091140 | 10 | 24 | 9.7 | 17.7 | 0.00 | 0.00 | 0.00 | 59 | 1015.5 |
| 20260505090123 | 10 | 16 | 11.3 | 19.3 | 0.00 | 0.00 | 0.00 | 58 | 1015.5 |
| 20260505085200 | 10 | 19 | 8.0 | 17.7 | 0.00 | 0.00 | 0.00 | 58 | 1015.4 |
| 20260505084103 | 10 | 38 | 9.7 | 17.7 | 0.00 | 0.00 | 0.00 | 59 | 1015.3 |
| 20260505082103 | 10 | 16 | 8.0 | 19.3 | 0.00 | 0.00 | 0.00 | 59 | 1015.2 |
| 20260505081039 | 10 | 13 | 8.0 | 17.7 | 0.00 | 0.00 | 0.00 | 60 | 1015.1 |
| 20260505080103 | 10 | 45 | 6.4 | 12.9 | 0.00 | 0.00 | 0.00 | 62 | 1015.1 |
| 20260505075119 | 10 | 33 | 6.4 | 12.9 | 0.00 | 0.00 | 0.00 | 62 | 1014.9 |
| 20260505074104 | 9 | 336 | 6.4 | 12.9 | 0.00 | 0.00 | 0.00 | 62 | 1014.8 |